Total_Precipitation_Accumulation
2.18 2.28 2.26 2.24 2.24 2.16 2.22 2.30 2.37 2.28 2.06 1.84 1.78 1.68 1.71 1.73 1.84 1.49 1.50 1.68 1.48 1.37 1.29 1.25 1.25 1.19 1.16 1.16 1.14 1.15 1.18 1.27 1.38 1.49 1.58 1.68 1.81 2.01
1.91 2.07 2.13 2.15 2.26 2.30 2.39 2.40 2.40 2.39 2.26 1.94 1.84 1.76 1.75 1.67 1.92 1.65 1.61 1.68 1.46 1.29 1.17 1.09 1.05 1.01 0.99 1.01 1.04 1.06 1.06 1.05 1.08 1.17 1.27 1.38 1.49 1.62
1.74 1.84 1.94 1.99 2.09 2.12 2.19 2.22 2.31 2.35 2.30 2.05 1.91 1.89 1.87 1.84 1.85 1.71 1.61 1.53 1.41 1.29 1.12 1.02 0.97 0.94 0.93 0.95 0.98 0.99 1.02 1.02 1.03 1.05 1.10 1.19 1.27 1.34
1.59 1.66 1.74 1.76 1.83 1.81 1.90 1.96 1.99 2.04 2.07 2.10 2.11 2.05 1.99 1.93 1.85 1.68 1.43 1.26 1.22 1.19 1.07 1.01 0.99 0.99 1.00 1.03 1.03 1.02 0.98 0.93 0.93 0.99 1.04 1.06 1.07 1.16
1.36 1.42 1.48 1.49 1.47 1.44 1.50 1.51 1.61 1.72 1.91 1.97 1.96 2.01 2.00 2.00 2.05 1.76 1.52 1.47 1.13 1.06 1.00 0.99 0.99 0.97 0.96 0.95 0.94 0.93 0.91 0.83 0.76 0.77 0.85 0.95 0.99 0.98
1.15 1.19 1.21 1.16 1.12 1.15 1.17 1.22 1.36 1.62 1.80 1.85 1.76 1.77 1.85 1.84 2.01 1.89 1.73 1.60 1.35 1.01 0.94 0.86 0.88 0.89 0.87 0.81 0.79 0.77 0.78 0.79 0.79 0.76 0.75 0.75 0.78 0.81
1.03 1.03 0.99 0.97 0.99 0.97 0.92 1.03 1.23 1.48 1.61 1.68 1.68 1.63 1.62 1.68 1.75 1.67 1.65 1.64 1.51 1.22 1.11 0.90 0.82 0.85 0.88 0.87 0.83 0.75 0.69 0.67 0.69 0.70 0.71 0.72 0.74 0.76
1.03 0.94 0.89 0.85 0.83 0.84 0.85 0.94 1.06 1.19 1.31 1.44 1.49 1.50 1.50 1.54 1.66 1.65 1.64 1.66 1.63 1.38 1.32 1.18 0.97 1.03 0.99 0.90 0.84 0.75 0.73 0.72 0.71 0.71 0.74 0.75 0.74 0.76
1.06 1.07 0.92 0.76 0.83 0.87 0.89 0.95 0.99 1.03 1.12 1.29 1.38 1.37 1.43 1.55 1.73 1.70 1.70 1.67 1.60 1.43 1.47 1.43 1.25 1.20 0.97 0.83 0.84 0.76 0.71 0.69 0.70 0.70 0.73 0.73 0.75 0.75
0.98 1.00 1.01 0.95 0.90 0.94 0.93 0.95 0.98 1.04 1.10 1.18 1.32 1.34 1.29 1.41 1.61 1.62 1.62 1.59 1.50 1.42 1.48 1.53 1.29 1.20 0.94 0.98 0.90 0.74 0.67 0.68 0.68 0.63 0.64 0.66 0.72 0.76
0.83 0.82 0.82 0.82 0.82 0.90 0.98 1.06 1.07 1.06 0.95 1.01 1.07 1.14 1.24 1.32 1.39 1.44 1.56 1.70 1.63 1.47 1.44 1.53 1.40 1.26 1.09 1.12 0.99 0.83 0.75 0.77 0.72 0.61 0.56 0.56 0.60 0.68
0.78 0.75 0.74 0.69 0.67 0.66 0.77 0.97 1.09 1.05 0.99 1.00 1.12 1.27 1.35 1.39 1.36 1.41 1.54 1.64 1.62 1.62 1.43 1.46 1.45 1.36 1.32 1.13 1.03 0.99 0.98 1.01 0.90 0.72 0.59 0.56 0.59 0.65
0.75 0.75 0.73 0.64 0.55 0.56 0.67 0.84 0.92 0.91 1.00 1.22 1.44 1.49 1.49 1.43 1.34 1.32 1.46 1.58 1.62 1.62 1.39 1.41 1.47 1.49 1.54 1.35 1.07 1.06 1.14 1.23 1.18 0.98 0.77 0.68 0.64 0.62
0.72 0.71 0.67 0.62 0.53 0.56 0.63 0.75 0.80 0.90 1.13 1.38 1.54 1.51 1.33 1.18 1.17 1.17 1.24 1.39 1.50 1.47 1.37 1.39 1.49 1.54 1.52 1.40 1.22 1.14 1.23 1.35 1.38 1.27 1.06 0.93 0.84 0.76
0.64 0.63 0.61 0.62 0.64 0.73 0.79 0.80 0.87 1.06 1.26 1.37 1.37 1.28 1.17 1.11 1.12 1.17 1.15 1.29 1.35 1.25 1.14 1.18 1.34 1.44 1.53 1.47 1.40 1.41 1.48 1.59 1.56 1.50 1.37 1.15 0.99 0.93
0.61 0.66 0.73 0.79 0.82 0.85 0.92 1.00 1.05 1.12 1.13 1.21 1.21 1.15 1.07 1.09 1.13 1.10 1.13 1.21 1.34 1.31 1.19 1.15 1.23 1.38 1.48 1.43 1.49 1.56 1.59 1.81 1.77 1.63 1.55 1.46 1.26 1.06
0.59 0.73 0.91 0.98 1.00 0.99 0.97 1.00 1.04 1.05 1.06 1.05 1.03 1.02 1.04 1.04 1.04 1.01 1.06 1.09 1.22 1.26 1.26 1.23 1.25 1.30 1.28 1.28 1.38 1.42 1.49 1.65 1.75 1.68 1.62 1.69 1.65 1.40
0.63 0.86 0.99 1.03 1.05 0.95 0.90 0.88 0.88 0.89 0.86 0.87 0.90 0.94 0.98 0.97 0.97 0.96 1.00 1.05 1.13 1.14 1.16 1.21 1.25 1.37 1.37 1.23 1.27 1.36 1.36 1.54 1.64 1.59 1.50 1.64 1.78 1.55
0.62 0.76 0.87 0.94 0.95 0.86 0.81 0.82 0.83 0.81 0.80 0.82 0.86 0.90 0.92 0.91 0.93 0.96 0.96 1.01 1.05 1.06 1.08 1.09 1.14 1.24 1.34 1.34 1.29 1.32 1.35 1.40 1.44 1.42 1.42 1.46 1.62 1.56
0.65 0.70 0.76 0.83 0.86 0.82 0.80 0.81 0.81 0.80 0.81 0.82 0.84 0.89 0.93 0.92 0.89 0.88 0.90 0.91 0.96 1.01 1.06 1.10 1.11 1.13 1.19 1.22 1.35 1.37 1.28 1.16 1.12 1.19 1.23 1.30 1.40 1.40
0.66 0.68 0.67 0.71 0.73 0.75 0.78 0.79 0.78 0.77 0.78 0.78 0.79 0.84 0.88 0.88 0.88 0.83 0.81 0.81 0.88 0.95 1.03 1.09 1.10 1.05 1.03 1.09 1.23 1.30 1.26 1.27 1.15 1.04 1.03 1.10 1.12 1.04
0.61 0.65 0.66 0.66 0.67 0.65 0.65 0.68 0.72 0.70 0.68 0.70 0.76 0.82 0.86 0.87 0.83 0.77 0.78 0.83 0.88 0.93 0.96 0.96 0.93 0.95 0.99 1.09 1.17 1.24 1.22 1.09 1.05 1.06 1.01 0.86 0.75 0.79
0.67 0.65 0.63 0.64 0.61 0.58 0.59 0.61 0.63 0.63 0.63 0.65 0.69 0.76 0.76 0.75 0.73 0.68 0.66 0.67 0.71 0.76 0.83 0.89 0.90 0.90 0.90 0.93 0.99 1.02 0.98 0.88 0.77 0.78 0.89 0.90 0.76 0.71